Private Wetterstation Sandau
Wetterdaten: Montag, 04.06.2012
Datum Zeit Temp. A. Feuchte A. Luftdruck Regen Wind Richtung Richtung Taupunkt Windchill
04.06.2012 00:01 9,8 C 81 % 1009,3 hPa 0,0 l/m 2,9 km/h (1 Bft) W 270 6,7 C 9,8 C
04.06.2012 00:06 9,7 C 81 % 1009,4 hPa 0,0 l/m 3,6 km/h (1 Bft) W 270 6,6 C 9,7 C
04.06.2012 00:11 9,6 C 81 % 1009,5 hPa 0,0 l/m 2,5 km/h (1 Bft) W 270 6,5 C 9,6 C
04.06.2012 00:16 9,6 C 82 % 1009,6 hPa 0,0 l/m 5,0 km/h (1 Bft) W 270 6,7 C 9,3 C
04.06.2012 00:21 9,6 C 82 % 1009,6 hPa 0,0 l/m 3,2 km/h (1 Bft) W-NW 292 6,7 C 9,6 C
04.06.2012 00:26 9,6 C 82 % 1009,6 hPa 0,0 l/m 6,5 km/h (2 Bft) W-NW 292 6,7 C 8,9 C
04.06.2012 00:31 9,6 C 82 % 1009,6 hPa 0,0 l/m 4,7 km/h (1 Bft) W 270 6,7 C 9,4 C
04.06.2012 00:36 9,6 C 82 % 1009,6 hPa 0,0 l/m 7,9 km/h (2 Bft) W-NW 292 6,7 C 8,6 C
04.06.2012 00:41 9,6 C 82 % 1009,7 hPa 0,0 l/m 5,8 km/h (2 Bft) W 270 6,7 C 9,1 C
04.06.2012 00:46 9,6 C 82 % 1009,8 hPa 0,0 l/m 4,0 km/h (1 Bft) W 270 6,7 C 9,6 C
04.06.2012 00:51 9,5 C 82 % 1009,8 hPa 0,0 l/m 3,2 km/h (1 Bft) W-NW 292 6,6 C 9,5 C
04.06.2012 00:56 9,5 C 83 % 1009,7 hPa 0,0 l/m 4,7 km/h (1 Bft) W-NW 292 6,8 C 9,3 C
04.06.2012 01:01 9,6 C 83 % 1009,8 hPa 0,0 l/m 1,4 km/h (1 Bft) W 270 6,9 C 9,6 C
04.06.2012 01:06 9,6 C 83 % 1009,8 hPa 0,0 l/m 4,3 km/h (1 Bft) W 270 6,9 C 9,6 C
04.06.2012 01:11 9,6 C 83 % 1009,8 hPa 0,0 l/m 4,3 km/h (1 Bft) W-NW 292 6,9 C 9,6 C
04.06.2012 01:16 9,5 C 83 % 1009,8 hPa 0,0 l/m 4,7 km/h (1 Bft) W-NW 292 6,8 C 9,3 C
04.06.2012 01:21 9,5 C 83 % 1009,8 hPa 0,0 l/m 2,9 km/h (1 Bft) W-NW 292 6,8 C 9,5 C
04.06.2012 01:26 9,5 C 83 % 1009,9 hPa 0,0 l/m 1,4 km/h (1 Bft) W 270 6,8 C 9,5 C
04.06.2012 01:31 9,6 C 83 % 1009,9 hPa 0,0 l/m 2,9 km/h (1 Bft) W 270 6,9 C 9,6 C
04.06.2012 01:36 9,6 C 83 % 1010,0 hPa 0,0 l/m 4,0 km/h (1 Bft) W-NW 292 6,9 C 9,6 C
04.06.2012 01:41 9,5 C 84 % 1009,9 hPa 0,0 l/m 1,4 km/h (1 Bft) W 270 6,9 C 9,5 C
04.06.2012 01:46 9,5 C 84 % 1010,0 hPa 0,0 l/m 0,0 km/h (0 Bft) W 270 6,9 C 9,5 C
04.06.2012 01:51 9,5 C 84 % 1009,8 hPa 0,0 l/m 4,7 km/h (1 Bft) W 270 6,9 C 9,3 C
04.06.2012 01:56 9,6 C 84 % 1009,8 hPa 0,0 l/m 5,0 km/h (1 Bft) NW 315 7,0 C 9,3 C
04.06.2012 02:01 9,5 C 84 % 1009,8 hPa 0,0 l/m 3,6 km/h (1 Bft) W 270 6,9 C 9,5 C
04.06.2012 02:06 9,5 C 84 % 1009,6 hPa 0,0 l/m 2,2 km/h (1 Bft) W 270 6,9 C 9,5 C
04.06.2012 02:11 9,5 C 84 % 1009,7 hPa 0,0 l/m 2,5 km/h (1 Bft) W 270 6,9 C 9,5 C
04.06.2012 02:16 9,5 C 84 % 1009,8 hPa 0,0 l/m 3,2 km/h (1 Bft) W 270 6,9 C 9,5 C
04.06.2012 02:21 9,5 C 84 % 1009,7 hPa 0,0 l/m 5,0 km/h (1 Bft) W-SW 247 6,9 C 9,2 C
04.06.2012 02:26 9,5 C 84 % 1009,8 hPa 0,0 l/m 5,0 km/h (1 Bft) W 270 6,9 C 9,2 C
04.06.2012 02:31 9,5 C 84 % 1009,8 hPa 0,0 l/m 3,2 km/h (1 Bft) W 270 6,9 C 9,5 C
04.06.2012 02:36 9,4 C 84 % 1009,8 hPa 0,0 l/m 7,2 km/h (2 Bft) W-NW 292 6,8 C 8,5 C
04.06.2012 02:41 9,4 C 85 % 1009,7 hPa 0,0 l/m 2,9 km/h (1 Bft) W 270 7,0 C 9,4 C
04.06.2012 02:46 9,4 C 85 % 1009,7 hPa 0,0 l/m 8,3 km/h (2 Bft) NW 315 7,0 C 8,2 C
04.06.2012 02:51 9,4 C 85 % 1009,7 hPa 0,0 l/m 6,5 km/h (2 Bft) W-NW 292 7,0 C 8,7 C
04.06.2012 02:56 9,4 C 85 % 1009,6 hPa 0,0 l/m 3,2 km/h (1 Bft) W-NW 292 7,0 C 9,4 C
04.06.2012 03:01 9,4 C 85 % 1009,7 hPa 0,0 l/m 3,2 km/h (1 Bft) W 270 7,0 C 9,4 C
04.06.2012 03:06 9,4 C 85 % 1009,7 hPa 0,0 l/m 3,2 km/h (1 Bft) W-NW 292 7,0 C 9,4 C
04.06.2012 03:11 9,4 C 85 % 1009,6 hPa 0,0 l/m 3,6 km/h (1 Bft) W 270 7,0 C 9,4 C
04.06.2012 03:16 9,4 C 85 % 1009,7 hPa 0,0 l/m 0,0 km/h (0 Bft) W 270 7,0 C 9,4 C
04.06.2012 03:21 9,4 C 85 % 1009,6 hPa 0,0 l/m 2,5 km/h (1 Bft) W-NW 292 7,0 C 9,4 C
04.06.2012 03:26 9,4 C 85 % 1009,5 hPa 0,0 l/m 3,2 km/h (1 Bft) W-NW 292 7,0 C 9,4 C
04.06.2012 03:31 9,4 C 85 % 1009,5 hPa 0,0 l/m 4,7 km/h (1 Bft) W-NW 292 7,0 C 9,2 C
04.06.2012 03:36 9,4 C 85 % 1009,6 hPa 0,0 l/m 8,3 km/h (2 Bft) NW 315 7,0 C 8,2 C
04.06.2012 03:41 9,4 C 85 % 1009,6 hPa 0,0 l/m 6,1 km/h (2 Bft) W-NW 292 7,0 C 8,8 C
04.06.2012 03:46 9,3 C 85 % 1009,6 hPa 0,0 l/m 6,5 km/h (2 Bft) W-NW 292 6,9 C 8,5 C
04.06.2012 03:51 9,4 C 85 % 1009,5 hPa 0,0 l/m 2,9 km/h (1 Bft) W-NW 292 7,0 C 9,4 C
04.06.2012 03:56 9,4 C 85 % 1009,4 hPa 0,0 l/m 6,5 km/h (2 Bft) W-NW 292 7,0 C 8,7 C
04.06.2012 04:01 9,4 C 85 % 1009,5 hPa 0,0 l/m 4,7 km/h (1 Bft) W-NW 292 7,0 C 9,2 C
04.06.2012 04:06 9,4 C 85 % 1009,5 hPa 0,0 l/m 4,0 km/h (1 Bft) W-NW 292 7,0 C 9,4 C
04.06.2012 04:11 9,5 C 85 % 1009,5 hPa 0,0 l/m 3,6 km/h (1 Bft) W 270 7,1 C 9,5 C
04.06.2012 04:16 9,4 C 85 % 1009,7 hPa 0,0 l/m 5,8 km/h (2 Bft) W 270 7,0 C 8,8 C
04.06.2012 04:21 9,4 C 85 % 1009,8 hPa 0,0 l/m 4,7 km/h (1 Bft) W 270 7,0 C 9,2 C
04.06.2012 04:26 9,4 C 85 % 1009,8 hPa 0,0 l/m 5,0 km/h (1 Bft) W 270 7,0 C 9,1 C
04.06.2012 04:31 9,4 C 85 % 1009,9 hPa 0,0 l/m 5,0 km/h (1 Bft) W-NW 292 7,0 C 9,1 C
04.06.2012 04:36 9,3 C 85 % 1009,9 hPa 0,0 l/m 3,6 km/h (1 Bft) W 270 6,9 C 9,3 C
04.06.2012 04:41 9,3 C 85 % 1009,9 hPa 0,0 l/m 6,1 km/h (2 Bft) W 270 6,9 C 8,6 C
04.06.2012 04:46 9,3 C 85 % 1010,1 hPa 0,0 l/m 2,9 km/h (1 Bft) W 270 6,9 C 9,3 C
04.06.2012 04:51 9,3 C 85 % 1010,1 hPa 0,0 l/m 6,1 km/h (2 Bft) W 270 6,9 C 8,6 C
04.06.2012 04:56 9,3 C 85 % 1010,2 hPa 0,0 l/m 6,1 km/h (2 Bft) W 270 6,9 C 8,6 C
04.06.2012 05:01 9,3 C 85 % 1010,2 hPa 0,0 l/m 2,9 km/h (1 Bft) W 270 6,9 C 9,3 C
04.06.2012 05:06 9,4 C 85 % 1010,2 hPa 0,0 l/m 5,4 km/h (1 Bft) W-NW 292 7,0 C 9,0 C
04.06.2012 05:11 9,3 C 84 % 1010,2 hPa 0,0 l/m 2,9 km/h (1 Bft) W 270 6,7 C 9,3 C
04.06.2012 05:16 9,3 C 84 % 1010,1 hPa 0,0 l/m 3,2 km/h (1 Bft) W 270 6,7 C 9,3 C
04.06.2012 05:21 9,3 C 84 % 1010,1 hPa 0,0 l/m 5,4 km/h (1 Bft) W 270 6,7 C 8,8 C
04.06.2012 05:26 9,3 C 84 % 1010,1 hPa 0,0 l/m 5,0 km/h (1 Bft) W 270 6,7 C 9,0 C
04.06.2012 05:31 9,4 C 84 % 1010,3 hPa 0,0 l/m 0,0 km/h (0 Bft) W-SW 247 6,8 C 9,4 C
04.06.2012 05:36 9,4 C 84 % 1010,3 hPa 0,0 l/m 3,2 km/h (1 Bft) W-SW 247 6,8 C 9,4 C
04.06.2012 05:41 9,5 C 84 % 1010,3 hPa 0,0 l/m 3,2 km/h (1 Bft) W 270 6,9 C 9,5 C
04.06.2012 05:46 9,5 C 84 % 1010,3 hPa 0,0 l/m 5,8 km/h (2 Bft) W-SW 247 6,9 C 9,0 C
04.06.2012 05:51 9,5 C 84 % 1010,4 hPa 0,0 l/m 4,7 km/h (1 Bft) W 270 6,9 C 9,3 C
04.06.2012 05:56 9,5 C 84 % 1010,5 hPa 0,0 l/m 4,0 km/h (1 Bft) W 270 6,9 C 9,5 C
04.06.2012 06:01 9,6 C 84 % 1010,4 hPa 0,0 l/m 3,2 km/h (1 Bft) W 270 7,0 C 9,6 C
04.06.2012 06:06 9,6 C 84 % 1010,4 hPa 0,0 l/m 4,7 km/h (1 Bft) W 270 7,0 C 9,4 C
04.06.2012 06:11 9,6 C 84 % 1010,5 hPa 0,0 l/m 3,2 km/h (1 Bft) W 270 7,0 C 9,6 C
04.06.2012 06:16 9,5 C 84 % 1010,5 hPa 0,0 l/m 2,5 km/h (1 Bft) W 270 6,9 C 9,5 C
04.06.2012 06:21 9,5 C 84 % 1010,6 hPa 0,0 l/m 0,0 km/h (0 Bft) W-NW 292 6,9 C 9,5 C
04.06.2012 06:26 9,5 C 84 % 1010,6 hPa 0,0 l/m 1,1 km/h (1 Bft) SW 225 6,9 C 9,5 C
04.06.2012 06:31 9,5 C 84 % 1010,5 hPa 0,0 l/m 5,4 km/h (1 Bft) W-SW 247 6,9 C 9,1 C
04.06.2012 06:36 9,5 C 84 % 1010,7 hPa 0,0 l/m 3,6 km/h (1 Bft) W-SW 247 6,9 C 9,5 C
04.06.2012 06:41 9,5 C 84 % 1010,8 hPa 0,0 l/m 3,2 km/h (1 Bft) W 270 6,9 C 9,5 C
04.06.2012 06:46 9,5 C 84 % 1010,9 hPa 0,0 l/m 0,0 km/h (0 Bft) W 270 6,9 C 9,5 C
04.06.2012 06:51 9,6 C 84 % 1011,0 hPa 0,0 l/m 3,6 km/h (1 Bft) W-SW 247 7,0 C 9,6 C
04.06.2012 06:56 9,6 C 84 % 1010,9 hPa 0,0 l/m 0,0 km/h (0 Bft) W-SW 247 7,0 C 9,6 C
04.06.2012 07:01 9,8 C 84 % 1010,9 hPa 0,0 l/m 4,0 km/h (1 Bft) W 270 7,2 C 9,8 C
04.06.2012 07:06 9,8 C 84 % 1010,9 hPa 0,0 l/m 6,1 km/h (2 Bft) W-SW 247 7,2 C 9,2 C
04.06.2012 07:11 9,9 C 84 % 1010,7 hPa 0,0 l/m 3,2 km/h (1 Bft) W 270 7,3 C 9,9 C
04.06.2012 07:16 9,9 C 83 % 1010,7 hPa 0,0 l/m 5,4 km/h (1 Bft) W 270 7,2 C 9,5 C
04.06.2012 07:21 9,9 C 83 % 1010,8 hPa 0,0 l/m 6,5 km/h (2 Bft) W 270 7,2 C 9,2 C
04.06.2012 07:26 10,1 C 83 % 1010,7 hPa 0,0 l/m 6,5 km/h (2 Bft) W-SW 247 7,3 C 10,1 C
04.06.2012 07:31 10,2 C 83 % 1010,9 hPa 0,0 l/m 13,0 km/h (3 Bft) W-SW 247 7,4 C 10,2 C
04.06.2012 07:36 10,2 C 82 % 1010,9 hPa 0,0 l/m 5,8 km/h (2 Bft) W-SW 247 7,3 C 10,2 C
04.06.2012 07:41 10,2 C 82 % 1011,0 hPa 0,0 l/m 4,7 km/h (1 Bft) W 270 7,3 C 10,2 C
04.06.2012 07:46 10,4 C 82 % 1011,0 hPa 0,0 l/m 0,0 km/h (0 Bft) W 270 7,5 C 10,4 C
04.06.2012 07:51 10,4 C 82 % 1011,0 hPa 0,0 l/m 7,2 km/h (2 Bft) W 270 7,5 C 10,4 C
04.06.2012 07:56 10,5 C 82 % 1011,0 hPa 0,0 l/m 8,3 km/h (2 Bft) W 270 7,6 C 10,5 C
04.06.2012 08:01 10,6 C 81 % 1011,0 hPa 0,0 l/m 5,0 km/h (1 Bft) W-SW 247 7,5 C 10,6 C
04.06.2012 08:06 10,8 C 81 % 1011,1 hPa 0,0 l/m 10,4 km/h (2 Bft) W-SW 247 7,7 C 10,8 C
04.06.2012 08:11 10,9 C 80 % 1011,0 hPa 0,0 l/m 4,7 km/h (1 Bft) SW 225 7,6 C 10,9 C
04.06.2012 08:16 11,2 C 80 % 1011,2 hPa 0,0 l/m 8,3 km/h (2 Bft) W 270 7,9 C 11,2 C
04.06.2012 08:21 11,3 C 79 % 1011,1 hPa 0,0 l/m 6,8 km/h (2 Bft) W-SW 247 7,8 C 11,3 C
04.06.2012 08:26 11,5 C 78 % 1011,2 hPa 0,0 l/m 5,4 km/h (1 Bft) W-SW 247 7,8 C 11,5 C
04.06.2012 08:31 11,6 C 78 % 1011,3 hPa 0,0 l/m 11,2 km/h (2 Bft) SW 225 7,9 C 11,6 C
04.06.2012 08:36 11,8 C 76 % 1011,4 hPa 0,0 l/m 5,8 km/h (2 Bft) W 270 7,7 C 11,8 C
04.06.2012 08:41 11,9 C 76 % 1011,4 hPa 0,0 l/m 4,7 km/h (1 Bft) W 270 7,8 C 11,9 C
04.06.2012 08:46 11,9 C 76 % 1011,3 hPa 0,0 l/m 5,0 km/h (1 Bft) SW 225 7,8 C 11,9 C
04.06.2012 08:51 12,1 C 74 % 1011,4 hPa 0,0 l/m 14,8 km/h (3 Bft) W-SW 247 7,6 C 12,1 C
04.06.2012 08:56 12,1 C 74 % 1011,5 hPa 0,0 l/m 4,0 km/h (1 Bft) W-SW 247 7,6 C 12,1 C
04.06.2012 09:01 12,2 C 73 % 1011,4 hPa 0,0 l/m 2,2 km/h (1 Bft) W 270 7,5 C 12,2 C
04.06.2012 09:06 12,3 C 72 % 1011,3 hPa 0,0 l/m 5,8 km/h (2 Bft) W-SW 247 7,4 C 12,3 C
04.06.2012 09:11 12,4 C 71 % 1011,3 hPa 0,0 l/m 6,1 km/h (2 Bft) W-SW 247 7,3 C 12,4 C
04.06.2012 09:16 12,5 C 71 % 1011,3 hPa 0,0 l/m 7,9 km/h (2 Bft) W 270 7,4 C 12,5 C
04.06.2012 09:21 12,6 C 70 % 1011,4 hPa 0,0 l/m 4,7 km/h (1 Bft) NW 315 7,3 C 12,6 C
04.06.2012 09:26 12,7 C 69 % 1011,3 hPa 0,0 l/m 9,0 km/h (2 Bft) W-SW 247 7,2 C 12,7 C
04.06.2012 09:31 12,8 C 69 % 1011,4 hPa 0,0 l/m 6,5 km/h (2 Bft) W 270 7,3 C 12,8 C
04.06.2012 09:36 12,8 C 69 % 1011,4 hPa 0,0 l/m 5,4 km/h (1 Bft) W-NW 292 7,3 C 12,8 C
04.06.2012 09:41 12,9 C 68 % 1011,3 hPa 0,0 l/m 12,2 km/h (2 Bft) W-SW 247 7,1 C 12,9 C
04.06.2012 09:46 13,1 C 67 % 1011,4 hPa 0,0 l/m 9,4 km/h (2 Bft) NW 315 7,1 C 13,1 C
04.06.2012 09:51 13,2 C 67 % 1011,2 hPa 0,0 l/m 4,0 km/h (1 Bft) W 270 7,2 C 13,2 C
04.06.2012 09:56 13,2 C 67 % 1011,3 hPa 0,0 l/m 6,1 km/h (2 Bft) SW 225 7,2 C 13,2 C
04.06.2012 10:01 13,3 C 66 % 1011,3 hPa 0,0 l/m 7,2 km/h (2 Bft) W-NW 292 7,1 C 13,3 C
04.06.2012 10:06 13,2 C 65 % 1011,3 hPa 0,0 l/m 2,2 km/h (1 Bft) W 270 6,8 C 13,2 C
04.06.2012 10:11 13,3 C 65 % 1011,2 hPa 0,0 l/m 10,8 km/h (2 Bft) W-SW 247 6,9 C 13,3 C
04.06.2012 10:16 13,4 C 65 % 1011,2 hPa 0,0 l/m 5,0 km/h (1 Bft) W-NW 292 7,0 C 13,4 C
04.06.2012 10:21 13,8 C 65 % 1011,1 hPa 0,0 l/m 5,4 km/h (1 Bft) W-SW 247 7,3 C 13,8 C
04.06.2012 10:26 13,9 C 63 % 1011,2 hPa 0,0 l/m 14,0 km/h (3 Bft) W-SW 247 7,0 C 13,9 C
04.06.2012 10:31 14,1 C 62 % 1011,1 hPa 0,0 l/m 3,6 km/h (1 Bft) W-NW 292 6,9 C 14,1 C
04.06.2012 10:36 14,2 C 62 % 1011,1 hPa 0,0 l/m 7,9 km/h (2 Bft) W-NW 292 7,0 C 14,2 C
04.06.2012 10:41 14,4 C 61 % 1011,2 hPa 0,0 l/m 9,0 km/h (2 Bft) W-NW 292 7,0 C 14,4 C
04.06.2012 10:46 14,3 C 60 % 1011,2 hPa 0,0 l/m 8,3 km/h (2 Bft) W-NW 292 6,6 C 14,3 C
04.06.2012 10:51 14,1 C 59 % 1011,1 hPa 0,0 l/m 5,0 km/h (1 Bft) NW 315 6,2 C 14,1 C
04.06.2012 10:56 14,2 C 59 % 1011,0 hPa 0,0 l/m 7,2 km/h (2 Bft) S-SW 202 6,3 C 14,2 C
04.06.2012 11:01 14,4 C 59 % 1011,1 hPa 0,0 l/m 11,5 km/h (2 Bft) W 270 6,5 C 14,4 C
04.06.2012 11:06 14,4 C 58 % 1011,0 hPa 0,0 l/m 7,2 km/h (2 Bft) W-NW 292 6,2 C 14,4 C
04.06.2012 11:11 14,6 C 58 % 1011,2 hPa 0,0 l/m 5,0 km/h (1 Bft) SW 225 6,4 C 14,6 C
04.06.2012 11:16 14,9 C 57 % 1011,1 hPa 0,0 l/m 9,4 km/h (2 Bft) W 270 6,5 C 14,9 C
04.06.2012 11:21 14,9 C 56 % 1011,2 hPa 0,0 l/m 5,4 km/h (1 Bft) S-SW 202 6,2 C 14,9 C
04.06.2012 11:26 14,9 C 55 % 1011,0 hPa 0,0 l/m 6,5 km/h (2 Bft) W-NW 292 5,9 C 14,9 C
04.06.2012 11:31 15,1 C 55 % 1011,2 hPa 0,0 l/m 11,2 km/h (2 Bft) W-NW 292 6,1 C 15,1 C
04.06.2012 11:36 14,9 C 54 % 1011,2 hPa 0,0 l/m 6,5 km/h (2 Bft) W-NW 292 5,7 C 14,9 C
04.06.2012 11:41 14,9 C 54 % 1011,3 hPa 0,0 l/m 6,1 km/h (2 Bft) W-NW 292 5,7 C 14,9 C
04.06.2012 11:46 14,9 C 54 % 1011,3 hPa 0,0 l/m 6,1 km/h (2 Bft) W 270 5,7 C 14,9 C
04.06.2012 11:51 14,9 C 54 % 1011,2 hPa 0,0 l/m 11,9 km/h (2 Bft) SW 225 5,7 C 14,9 C
04.06.2012 11:56 14,9 C 54 % 1011,3 hPa 0,0 l/m 4,0 km/h (1 Bft) W 270 5,7 C 14,9 C
04.06.2012 12:01 14,9 C 54 % 1011,4 hPa 0,0 l/m 7,2 km/h (2 Bft) W 270 5,7 C 14,9 C
04.06.2012 12:06 15,3 C 54 % 1011,3 hPa 0,0 l/m 14,4 km/h (3 Bft) S-SW 202 6,0 C 15,3 C
04.06.2012 12:11 15,8 C 53 % 1011,1 hPa 0,0 l/m 9,0 km/h (2 Bft) S-SO 157 6,2 C 15,8 C
04.06.2012 12:16 15,9 C 53 % 1011,1 hPa 0,0 l/m 7,2 km/h (2 Bft) W-SW 247 6,3 C 15,9 C
04.06.2012 12:21 16,2 C 52 % 1011,1 hPa 0,0 l/m 14,0 km/h (3 Bft) SW 225 6,3 C 16,2 C
04.06.2012 12:26 16,2 C 51 % 1011,2 hPa 0,0 l/m 15,5 km/h (3 Bft) W 270 6,1 C 16,2 C
04.06.2012 12:31 16,1 C 52 % 1011,1 hPa 0,0 l/m 10,4 km/h (2 Bft) W-SW 247 6,2 C 16,1 C
04.06.2012 12:36 15,8 C 52 % 1011,2 hPa 0,0 l/m 6,5 km/h (2 Bft) W 270 6,0 C 15,8 C
04.06.2012 12:41 15,9 C 52 % 1011,1 hPa 0,0 l/m 14,8 km/h (3 Bft) W-NW 292 6,1 C 15,9 C
04.06.2012 12:46 16,1 C 51 % 1011,1 hPa 0,0 l/m 3,6 km/h (1 Bft) S 180 6,0 C 16,1 C
04.06.2012 12:51 16,3 C 50 % 1011,1 hPa 0,0 l/m 11,9 km/h (2 Bft) W 270 5,9 C 16,3 C
04.06.2012 12:56 16,3 C 51 % 1011,0 hPa 0,0 l/m 6,8 km/h (2 Bft) W 270 6,1 C 16,3 C
04.06.2012 13:01 16,3 C 49 % 1011,1 hPa 0,0 l/m 5,4 km/h (1 Bft) W-NW 292 5,6 C 16,3 C
04.06.2012 13:06 16,3 C 49 % 1011,0 hPa 0,0 l/m 11,5 km/h (2 Bft) W-NW 292 5,6 C 16,3 C
04.06.2012 13:11 16,4 C 49 % 1010,9 hPa 0,0 l/m 2,5 km/h (1 Bft) W-NW 292 5,7 C 16,4 C
04.06.2012 13:16 16,5 C 50 % 1010,9 hPa 0,0 l/m 14,4 km/h (3 Bft) W-SW 247 6,0 C 16,5 C
04.06.2012 13:21 16,5 C 49 % 1011,0 hPa 0,0 l/m 2,5 km/h (1 Bft) SW 225 5,8 C 16,5 C
04.06.2012 13:26 16,7 C 49 % 1010,8 hPa 0,0 l/m 6,1 km/h (2 Bft) NW 315 5,9 C 16,7 C
04.06.2012 13:31 16,9 C 48 % 1010,9 hPa 0,0 l/m 2,9 km/h (1 Bft) N-NO 22 5,8 C 16,9 C
04.06.2012 13:36 16,8 C 47 % 1010,8 hPa 0,0 l/m 10,1 km/h (2 Bft) W-NW 292 5,4 C 16,8 C
04.06.2012 13:41 16,8 C 47 % 1010,9 hPa 0,0 l/m 8,3 km/h (2 Bft) SW 225 5,4 C 16,8 C
04.06.2012 13:46 16,8 C 47 % 1010,8 hPa 0,0 l/m 8,6 km/h (2 Bft) W-NW 292 5,4 C 16,8 C
04.06.2012 13:51 16,8 C 48 % 1010,7 hPa 0,0 l/m 6,1 km/h (2 Bft) W 270 5,7 C 16,8 C
04.06.2012 13:56 16,9 C 48 % 1010,7 hPa 0,0 l/m 4,7 km/h (1 Bft) N-NW 337 5,8 C 16,9 C
04.06.2012 14:01 17,1 C 45 % 1010,6 hPa 0,0 l/m 8,6 km/h (2 Bft) SW 225 5,1 C 17,1 C
04.06.2012 14:06 17,1 C 46 % 1010,6 hPa 0,0 l/m 7,2 km/h (2 Bft) NW 315 5,4 C 17,1 C
04.06.2012 14:11 17,3 C 45 % 1010,5 hPa 0,0 l/m 8,6 km/h (2 Bft) W-SW 247 5,3 C 17,3 C
04.06.2012 14:16 17,6 C 46 % 1010,5 hPa 0,0 l/m 2,5 km/h (1 Bft) W 270 5,8 C 17,6 C
04.06.2012 14:21 17,9 C 45 % 1010,6 hPa 0,0 l/m 15,8 km/h (3 Bft) W-NW 292 5,8 C 17,9 C
04.06.2012 14:26 17,8 C 45 % 1010,6 hPa 0,0 l/m 5,0 km/h (1 Bft) W 270 5,7 C 17,8 C
04.06.2012 14:31 17,4 C 45 % 1010,6 hPa 0,0 l/m 6,8 km/h (2 Bft) SW 225 5,3 C 17,4 C
04.06.2012 14:36 17,4 C 47 % 1010,4 hPa 0,0 l/m 3,2 km/h (1 Bft) NW 315 6,0 C 17,4 C
04.06.2012 14:41 17,5 C 46 % 1010,4 hPa 0,0 l/m 6,5 km/h (2 Bft) W-NW 292 5,8 C 17,5 C
04.06.2012 14:46 17,4 C 45 % 1010,3 hPa 0,0 l/m 6,8 km/h (2 Bft) W-NW 292 5,3 C 17,4 C
04.06.2012 14:51 17,6 C 46 % 1010,3 hPa 0,0 l/m 14,8 km/h (3 Bft) W-SW 247 5,8 C 17,6 C
04.06.2012 14:56 17,9 C 46 % 1010,3 hPa 0,0 l/m 5,8 km/h (2 Bft) W 270 6,1 C 17,9 C
04.06.2012 15:01 18,1 C 45 % 1010,2 hPa 0,0 l/m 10,1 km/h (2 Bft) SW 225 6,0 C 18,1 C
04.06.2012 15:06 17,9 C 45 % 1010,2 hPa 0,0 l/m 0,0 km/h (0 Bft) W-NW 292 5,8 C 17,9 C
04.06.2012 15:11 17,9 C 45 % 1010,1 hPa 0,0 l/m 6,1 km/h (2 Bft) W 270 5,8 C 17,9 C
04.06.2012 15:16 17,9 C 45 % 1010,2 hPa 0,0 l/m 5,8 km/h (2 Bft) W 270 5,8 C 17,9 C
04.06.2012 15:21 17,8 C 45 % 1010,2 hPa 0,0 l/m 6,1 km/h (2 Bft) SW 225 5,7 C 17,8 C
04.06.2012 15:26 17,6 C 45 % 1010,2 hPa 0,0 l/m 5,8 km/h (2 Bft) SW 225 5,5 C 17,6 C
04.06.2012 15:31 17,5 C 45 % 1010,2 hPa 0,0 l/m 6,8 km/h (2 Bft) W-SW 247 5,4 C 17,5 C
04.06.2012 15:36 17,4 C 45 % 1010,1 hPa 0,0 l/m 3,2 km/h (1 Bft) S-SO 157 5,3 C 17,4 C
04.06.2012 15:41 17,4 C 45 % 1010,1 hPa 0,0 l/m 7,6 km/h (2 Bft) S 180 5,3 C 17,4 C
04.06.2012 15:46 17,4 C 46 % 1010,0 hPa 0,0 l/m 6,1 km/h (2 Bft) S 180 5,7 C 17,4 C
04.06.2012 15:51 17,3 C 46 % 1010,2 hPa 0,0 l/m 9,4 km/h (2 Bft) W-SW 247 5,6 C 17,3 C
04.06.2012 15:56 17,1 C 47 % 1010,2 hPa 0,0 l/m 5,8 km/h (2 Bft) SW 225 5,7 C 17,1 C
04.06.2012 16:01 16,9 C 47 % 1010,1 hPa 0,0 l/m 5,8 km/h (2 Bft) S 180 5,5 C 16,9 C
04.06.2012 16:06 16,9 C 47 % 1010,2 hPa 0,0 l/m 7,9 km/h (2 Bft) S-SW 202 5,5 C 16,9 C
04.06.2012 16:11 16,8 C 47 % 1010,3 hPa 0,0 l/m 7,9 km/h (2 Bft) SW 225 5,4 C 16,8 C
04.06.2012 16:16 16,6 C 48 % 1010,3 hPa 0,0 l/m 7,2 km/h (2 Bft) S-SW 202 5,5 C 16,6 C
04.06.2012 16:21 16,6 C 49 % 1010,3 hPa 0,0 l/m 3,6 km/h (1 Bft) W 270 5,8 C 16,6 C
04.06.2012 16:26 16,6 C 48 % 1010,3 hPa 0,0 l/m 5,8 km/h (2 Bft) W-NW 292 5,5 C 16,6 C
04.06.2012 16:31 16,5 C 49 % 1010,4 hPa 0,0 l/m 9,7 km/h (2 Bft) SW 225 5,8 C 16,5 C
04.06.2012 16:36 16,4 C 49 % 1010,4 hPa 0,0 l/m 7,2 km/h (2 Bft) W-NW 292 5,7 C 16,4 C
04.06.2012 16:41 16,2 C 50 % 1010,3 hPa 0,0 l/m 6,1 km/h (2 Bft) S 180 5,8 C 16,2 C
04.06.2012 16:46 16,1 C 50 % 1010,4 hPa 0,0 l/m 4,0 km/h (1 Bft) W 270 5,7 C 16,1 C
04.06.2012 16:51 16,1 C 51 % 1010,3 hPa 0,0 l/m 8,3 km/h (2 Bft) S-SW 202 6,0 C 16,1 C
04.06.2012 16:56 16,1 C 51 % 1010,3 hPa 0,0 l/m 5,8 km/h (2 Bft) S-SW 202 6,0 C 16,1 C
04.06.2012 17:01 16,2 C 52 % 1010,3 hPa 0,0 l/m 4,3 km/h (1 Bft) S-SW 202 6,3 C 16,2 C
04.06.2012 17:06 16,2 C 52 % 1010,3 hPa 0,0 l/m 7,2 km/h (2 Bft) S-SW 202 6,3 C 16,2 C
04.06.2012 17:11 16,1 C 52 % 1010,2 hPa 0,0 l/m 5,0 km/h (1 Bft) SW 225 6,2 C 16,1 C
04.06.2012 17:16 16,1 C 52 % 1010,3 hPa 0,0 l/m 4,0 km/h (1 Bft) S 180 6,2 C 16,1 C
04.06.2012 17:21 16,1 C 52 % 1010,3 hPa 0,0 l/m 2,5 km/h (1 Bft) S-SW 202 6,2 C 16,1 C
04.06.2012 17:26 16,1 C 53 % 1010,2 hPa 0,0 l/m 5,8 km/h (2 Bft) W-SW 247 6,5 C 16,1 C
04.06.2012 17:31 15,9 C 53 % 1010,2 hPa 0,0 l/m 2,2 km/h (1 Bft) W-SW 247 6,3 C 15,9 C
04.06.2012 17:36 15,9 C 54 % 1010,1 hPa 0,0 l/m 3,2 km/h (1 Bft) W-SW 247 6,6 C 15,9 C
04.06.2012 17:41 15,9 C 54 % 1010,2 hPa 0,0 l/m 6,5 km/h (2 Bft) S 180 6,6 C 15,9 C
04.06.2012 17:46 15,8 C 54 % 1010,2 hPa 0,0 l/m 3,2 km/h (1 Bft) S-SW 202 6,5 C 15,8 C
04.06.2012 17:51 15,7 C 54 % 1010,1 hPa 0,0 l/m 13,3 km/h (3 Bft) S-SO 157 6,4 C 15,7 C
04.06.2012 17:56 15,6 C 55 % 1010,1 hPa 0,0 l/m 6,5 km/h (2 Bft) SO 135 6,6 C 15,6 C
04.06.2012 18:01 15,6 C 55 % 1010,1 hPa 0,0 l/m 11,2 km/h (2 Bft) S-SO 157 6,6 C 15,6 C
04.06.2012 18:06 15,6 C 56 % 1010,2 hPa 0,0 l/m 3,6 km/h (1 Bft) S 180 6,9 C 15,6 C
04.06.2012 18:11 15,6 C 56 % 1010,0 hPa 0,0 l/m 5,0 km/h (1 Bft) S-SO 157 6,9 C 15,6 C
04.06.2012 18:16 15,6 C 56 % 1010,0 hPa 0,0 l/m 4,0 km/h (1 Bft) S-SW 202 6,9 C 15,6 C
04.06.2012 18:21 15,6 C 56 % 1010,1 hPa 0,0 l/m 1,4 km/h (1 Bft) S-SW 202 6,9 C 15,6 C
04.06.2012 18:26 15,6 C 56 % 1010,0 hPa 0,0 l/m 6,5 km/h (2 Bft) S 180 6,9 C 15,6 C
04.06.2012 18:31 15,7 C 56 % 1009,9 hPa 0,0 l/m 6,5 km/h (2 Bft) S-SW 202 6,9 C 15,7 C
04.06.2012 18:36 15,8 C 56 % 1009,9 hPa 0,0 l/m 3,2 km/h (1 Bft) S 180 7,0 C 15,8 C
04.06.2012 18:41 15,8 C 56 % 1009,8 hPa 0,0 l/m 6,1 km/h (2 Bft) SO 135 7,0 C 15,8 C
04.06.2012 18:46 15,8 C 56 % 1009,7 hPa 0,0 l/m 3,2 km/h (1 Bft) S-SO 157 7,0 C 15,8 C
04.06.2012 18:51 15,9 C 56 % 1009,7 hPa 0,0 l/m 3,6 km/h (1 Bft) S-SO 157 7,1 C 15,9 C
04.06.2012 18:56 15,9 C 56 % 1009,6 hPa 0,0 l/m 5,4 km/h (1 Bft) S-SW 202 7,1 C 15,9 C
04.06.2012 19:01 15,9 C 56 % 1009,6 hPa 0,0 l/m 0,0 km/h (0 Bft) S-SO 157 7,1 C 15,9 C
04.06.2012 19:06 15,8 C 56 % 1009,5 hPa 0,0 l/m 3,6 km/h (1 Bft) S-SO 157 7,0 C 15,8 C
04.06.2012 19:11 15,8 C 56 % 1009,6 hPa 0,0 l/m 3,6 km/h (1 Bft) S-SW 202 7,0 C 15,8 C
04.06.2012 19:16 15,8 C 56 % 1009,6 hPa 0,0 l/m 5,0 km/h (1 Bft) S 180 7,0 C 15,8 C
04.06.2012 19:21 15,8 C 56 % 1009,7 hPa 0,0 l/m 0,0 km/h (0 Bft) S 180 7,0 C 15,8 C
04.06.2012 19:26 15,7 C 57 % 1009,5 hPa 0,0 l/m 2,2 km/h (1 Bft) S 180 7,2 C 15,7 C
04.06.2012 19:31 15,6 C 57 % 1009,6 hPa 0,0 l/m 0,0 km/h (0 Bft) S-SO 157 7,1 C 15,6 C
04.06.2012 19:36 15,6 C 57 % 1009,6 hPa 0,0 l/m 3,2 km/h (1 Bft) S 180 7,1 C 15,6 C
04.06.2012 19:41 15,6 C 58 % 1009,6 hPa 0,0 l/m 3,6 km/h (1 Bft) S 180 7,4 C 15,6 C
04.06.2012 19:46 15,5 C 58 % 1009,7 hPa 0,0 l/m 3,6 km/h (1 Bft) S-SW 202 7,3 C 15,5 C
04.06.2012 19:51 15,4 C 58 % 1009,7 hPa 0,0 l/m 2,5 km/h (1 Bft) S-SO 157 7,2 C 15,4 C
04.06.2012 19:56 15,4 C 59 % 1009,8 hPa 0,0 l/m 4,0 km/h (1 Bft) S 180 7,4 C 15,4 C
04.06.2012 20:01 15,3 C 59 % 1009,9 hPa 0,0 l/m 1,8 km/h (1 Bft) S-SW 202 7,3 C 15,3 C
04.06.2012 20:06 15,3 C 59 % 1010,0 hPa 0,0 l/m 3,6 km/h (1 Bft) S 180 7,3 C 15,3 C
04.06.2012 20:11 15,3 C 59 % 1009,9 hPa 0,0 l/m 2,5 km/h (1 Bft) S-SW 202 7,3 C 15,3 C
04.06.2012 20:16 15,2 C 59 % 1010,0 hPa 0,0 l/m 4,7 km/h (1 Bft) SW 225 7,2 C 15,2 C
04.06.2012 20:21 15,1 C 61 % 1010,0 hPa 0,0 l/m 1,8 km/h (1 Bft) S 180 7,6 C 15,1 C
04.06.2012 20:26 14,9 C 62 % 1010,0 hPa 0,0 l/m 0,0 km/h (0 Bft) SW 225 7,7 C 14,9 C
04.06.2012 20:31 14,9 C 63 % 1010,1 hPa 0,0 l/m 0,0 km/h (0 Bft) W-SW 247 7,9 C 14,9 C
04.06.2012 20:36 14,9 C 63 % 1010,1 hPa 0,0 l/m 1,4 km/h (1 Bft) W-SW 247 7,9 C 14,9 C
04.06.2012 20:41 14,9 C 64 % 1010,0 hPa 0,0 l/m 0,0 km/h (0 Bft) W-SW 247 8,2 C 14,9 C
04.06.2012 20:46 14,8 C 65 % 1010,2 hPa 0,0 l/m 1,1 km/h (1 Bft) W-SW 247 8,3 C 14,8 C
04.06.2012 20:51 14,8 C 65 % 1010,3 hPa 0,0 l/m 0,0 km/h (0 Bft) W-SW 247 8,3 C 14,8 C
04.06.2012 20:56 14,6 C 66 % 1010,3 hPa 0,5 l/m 1,4 km/h (1 Bft) W-NW 292 8,3 C 14,6 C
04.06.2012 21:01 14,4 C 66 % 1010,2 hPa 0,0 l/m 3,2 km/h (1 Bft) W-NW 292 8,1 C 14,4 C
04.06.2012 21:06 14,3 C 67 % 1010,2 hPa 0,0 l/m 6,1 km/h (2 Bft) NW 315 8,3 C 14,3 C
04.06.2012 21:11 13,8 C 66 % 1010,2 hPa 0,0 l/m 2,9 km/h (1 Bft) N-NW 337 7,6 C 13,8 C
04.06.2012 21:16 13,2 C 67 % 1010,2 hPa 0,0 l/m 7,2 km/h (2 Bft) N-NO 22 7,2 C 13,2 C
04.06.2012 21:21 12,7 C 68 % 1010,2 hPa 0,0 l/m 3,2 km/h (1 Bft) N 360 6,9 C 12,7 C
04.06.2012 21:26 12,4 C 69 % 1010,3 hPa 0,0 l/m 2,9 km/h (1 Bft) N-NO 22 6,9 C 12,4 C
04.06.2012 21:31 12,1 C 71 % 1010,3 hPa 0,0 l/m 2,5 km/h (1 Bft) N 360 7,0 C 12,1 C
04.06.2012 21:36 11,9 C 72 % 1010,4 hPa 0,0 l/m 4,3 km/h (1 Bft) N 360 7,0 C 11,9 C
04.06.2012 21:41 11,6 C 73 % 1010,4 hPa 0,0 l/m 6,1 km/h (2 Bft) N 360 6,9 C 11,6 C
04.06.2012 21:46 11,5 C 74 % 1010,3 hPa 0,0 l/m 4,3 km/h (1 Bft) N-NO 22 7,0 C 11,5 C
04.06.2012 21:51 11,3 C 75 % 1010,3 hPa 0,0 l/m 5,4 km/h (1 Bft) NO 45 7,0 C 11,3 C
04.06.2012 21:56 11,1 C 76 % 1010,2 hPa 0,0 l/m 3,2 km/h (1 Bft) NO 45 7,0 C 11,1 C
04.06.2012 22:01 11,0 C 77 % 1010,2 hPa 0,0 l/m 8,3 km/h (2 Bft) N-NO 22 7,1 C 11,0 C
04.06.2012 22:06 10,9 C 78 % 1010,2 hPa 0,0 l/m 7,6 km/h (2 Bft) N 360 7,2 C 10,9 C
04.06.2012 22:11 10,9 C 79 % 1010,2 hPa 0,0 l/m 5,8 km/h (2 Bft) NO 45 7,4 C 10,9 C
04.06.2012 22:16 10,8 C 80 % 1010,2 hPa 0,0 l/m 6,1 km/h (2 Bft) N-NO 22 7,5 C 10,8 C
04.06.2012 22:21 10,8 C 81 % 1010,2 hPa 0,0 l/m 8,6 km/h (2 Bft) NO 45 7,7 C 10,8 C
04.06.2012 22:26 10,7 C 81 % 1010,1 hPa 0,0 l/m 8,6 km/h (2 Bft) NO 45 7,6 C 10,7 C
04.06.2012 22:31 10,7 C 81 % 1010,2 hPa 0,0 l/m 4,7 km/h (1 Bft) N-NO 22 7,6 C 10,7 C
04.06.2012 22:36 10,6 C 81 % 1010,2 hPa 0,0 l/m 8,6 km/h (2 Bft) NO 45 7,5 C 10,6 C
04.06.2012 22:41 10,5 C 81 % 1010,3 hPa 0,0 l/m 7,2 km/h (2 Bft) NO 45 7,4 C 10,5 C
04.06.2012 22:46 10,4 C 81 % 1010,3 hPa 0,0 l/m 4,0 km/h (1 Bft) N-NW 337 7,3 C 10,4 C
04.06.2012 22:51 10,3 C 81 % 1010,3 hPa 0,0 l/m 6,5 km/h (2 Bft) NO 45 7,2 C 10,3 C
04.06.2012 22:56 10,2 C 82 % 1010,3 hPa 0,0 l/m 5,0 km/h (1 Bft) NO 45 7,3 C 10,2 C
04.06.2012 23:01 10,1 C 82 % 1010,3 hPa 0,0 l/m 7,2 km/h (2 Bft) NO 45 7,2 C 10,1 C
04.06.2012 23:06 10,1 C 82 % 1010,3 hPa 0,5 l/m 6,8 km/h (2 Bft) N 360 7,2 C 10,1 C
04.06.2012 23:11 10,1 C 82 % 1010,3 hPa 0,0 l/m 4,7 km/h (1 Bft) N-NO 22 7,2 C 10,1 C
04.06.2012 23:16 9,9 C 83 % 1010,3 hPa 0,0 l/m 13,0 km/h (3 Bft) N 360 7,2 C 8,1 C
04.06.2012 23:21 9,9 C 83 % 1010,3 hPa 0,5 l/m 9,0 km/h (2 Bft) NO 45 7,2 C 8,7 C
04.06.2012 23:26 9,9 C 84 % 1010,2 hPa 0,0 l/m 4,0 km/h (1 Bft) NO 45 7,3 C 9,9 C
04.06.2012 23:31 9,9 C 84 % 1010,1 hPa 0,0 l/m 7,9 km/h (2 Bft) N-NO 22 7,3 C 8,9 C
04.06.2012 23:36 9,8 C 85 % 1010,2 hPa 0,0 l/m 8,3 km/h (2 Bft) N-NO 22 7,4 C 8,7 C
04.06.2012 23:41 9,8 C 85 % 1010,2 hPa 0,5 l/m 8,6 km/h (2 Bft) N 360 7,4 C 8,7 C
04.06.2012 23:46 9,8 C 85 % 1010,3 hPa 0,0 l/m 8,6 km/h (2 Bft) N-NO 22 7,4 C 8,7 C
04.06.2012 23:51 9,8 C 86 % 1010,2 hPa 0,0 l/m 13,3 km/h (3 Bft) O-NO 67 7,6 C 7,9 C
04.06.2012 23:56 9,8 C 86 % 1010,2 hPa 0,0 l/m 7,2 km/h (2 Bft) NO 45 7,6 C 8,9 C
_ Min-Zeit 03:46 14:01 00:01 - 01:46 - - 14:01 23:51
Minimum _ 9,3 C 45 % 1009,3 hPa - 0,0 km/h (0 Bft) - - 5,1 C 7,9 C
_ Max-Zeit 15:01 23:51 08:56 20:56 14:21 - - 20:56 15:01
Maximum _ 18,1 C 86 % 1011,5 hPa 0,5 l/m 15,8 km/h
W-NW (3 Bft)
- - 8,3 C 18,1 C
Durchschnitt _ 12,9 C 68 % 1010,4 hPa #2,1 l/m 5,5 km/h (1 Bft) W - 6,8 C 12,8 C
(c) by David Heller